This is the latest recevied weather packets stored in our database for station/object N5XJB. If no packets are shown the sender has not sent any weather packets the latest 10 day(s).
| Time | Temp. | Humidity | Pressure | Rain* | Wind** | Luminosity | Snow |
|---|---|---|---|---|---|---|---|
| 1777686666 | 13.89° C | 98% | 1014.8 hPa | 1.78 mm | - | 0 W/m² | - |
| 1777686363 | 14.44° C | 98% | 1015.1 hPa | 1.78 mm | - | 0 W/m² | - |
| 1777686060 | 13.89° C | 98% | 1014.8 hPa | 1.78 mm | - | 0 W/m² | - |
| 1777685755 | 13.89° C | 98% | 1014.4 hPa | 1.78 mm | - | 0 W/m² | - |
| 1777685452 | 13.89° C | 98% | 1014.1 hPa | 1.52 mm | - | 0 W/m² | - |
| 1777685150 | 14.44° C | 98% | 1014.1 hPa | 1.52 mm | - | 0 W/m² | - |
| 1777684847 | 14.44° C | 98% | 1014.4 hPa | 1.02 mm | - | 0 W/m² | - |
| 1777684544 | 14.44° C | 98% | 1014.1 hPa | 0.76 mm | - | 0 W/m² | - |
| 1777684240 | 15° C | 98% | 1014.1 hPa | 0.25 mm | - | 0 W/m² | - |
| 1777683938 | 15° C | 98% | 1014.8 hPa | 0 mm | - | 0 W/m² | - |
| 1777683633 | 15° C | 98% | 1014.8 hPa | 1.52 mm | - | 0 W/m² | - |
| 1777683332 | 15° C | 98% | 1014.8 hPa | 1.52 mm | - | 0 W/m² | - |
| 1777683029 | 15° C | 98% | 1013.1 hPa | 1.02 mm | - | 1 W/m² | - |
| 1777682725 | 14.44° C | 98% | 1012.7 hPa | 1.02 mm | - | 2 W/m² | - |
| 1777682422 | 14.44° C | 98% | 1012.4 hPa | 0.76 mm | - | 5 W/m² | - |
| 1777682120 | 14.44° C | 98% | 1012.7 hPa | 0.76 mm | - | 9 W/m² | - |
| 1777681816 | 15° C | 98% | 1013.1 hPa | 0.76 mm | - | 9 W/m² | - |
| 1777681513 | 15° C | 98% | 1013.4 hPa | 0.25 mm | - | 6 W/m² | - |
| 1777681210 | 15° C | 98% | 1013.7 hPa | 0.25 mm | - | 7 W/m² | - |
| 1777680908 | 15° C | 98% | 1013.7 hPa | 0.25 mm | - | 13 W/m² | - |
| 1777680605 | 15° C | 98% | 1013.1 hPa | 0.25 mm | - | 26 W/m² | - |
| 1777680303 | 15° C | 98% | 1013.4 hPa | 0 mm | - | 23 W/m² | - |
| 1777679999 | 15° C | 98% | 1013.7 hPa | 4.57 mm | - | 21 W/m² | - |
| 1777679695 | 15° C | 98% | 1013.7 hPa | 4.32 mm | - | 15 W/m² | - |
| 1777679390 | 15° C | 98% | 1013.7 hPa | 3.56 mm | - | 14 W/m² | - |
* Rain latest hour (hover to see other rain measurements)
** Current wind speed in m/s (hover to see current wind gust speed)